Regional Weather Roundup
Issued by NWS Sioux Falls, SD

Home | Current Version | Previous Version | Text Only | Print | Product List | Glossary Off
Versions: 1 2 3 4 5 6 7 8 9 10 11 12 13 14 15 16 17 18 19 20 21 22 23 24 25 26 27 28 29 30 31 32 33 34 35 36 37 38 39 40 41 42 43 44 45 46 47 48 49 50

000
ASUS43 KFSD 190302
RWRFSD

WEATHER ROUNDUP FOR SE SOUTH DAKOTA/SW MINNESOTA/NW IOWA
NATIONAL WEATHER SERVICE SIOUX FALLS SD
900 PM CST THU DEC 18 2014

NOTE: "FAIR" INDICATES FEW OR NO CLOUDS BELOW 12,000 FEET WITH NO
SIGNIFICANT WEATHER AND OR OBSTRUCTIONS TO VISIBILITY.


SDZ038>040-050-052>070-190400-
SOUTHEAST SOUTH DAKOTA

CITY           SKY/WX    TMP DP  RH WIND       PRES   REMARKS
CHAMBERLAIN    NOT AVBL
HURON          CLOUDY    26  23  88 S9        30.13F WCI  17
MADISON        CLOUDY    25  25 100 S8        30.14S WCI  16
MITCHELL       CLOUDY    28  25  88 S9        30.16S WCI  19
SIOUX FALLS    CLOUDY    27  23  85 S9        30.17S WCI  18
WINNER         FAIR      25  22  88 S13       30.08S FOG     WCI  14
YANKTON        CLOUDY    28  25  86 S6        30.19S WCI  22
$$

MNZ071-072-080-081-089-090-097-098-190400-
SOUTHWEST MINNESOTA

CITY           SKY/WX    TMP DP  RH WIND       PRES   REMARKS
FAIRMONT       CLOUDY    25  18  74 SE6       30.22F WCI  18
JACKSON        CLOUDY    27  21  80 SE6       30.20F WCI  20
LUVERNE        CLOUDY    28  27  93 S6        30.18F WCI  22
MARSHALL       CLOUDY    25  19  80 SE5       30.19S WCI  19
MONTEVIDEO     CLOUDY    21  19  93 S7        30.22S WCI  13
PIPESTONE      MOCLDY    25  23  93 CALM      30.15F
REDWOOD FALLS  CLOUDY    23  18  81 SE8       30.23S WCI  14
TRACY          CLOUDY    26  23  91 CALM      30.20R
WINDOM         CLOUDY    25  21  86 CALM      30.20S
WORTHINGTON    CLOUDY    25  21  86 S7        30.18F WCI  17
$$

IAZ001>003-012>014-020>022-031-032-NEZ013-014-SDZ071-190400-
NORTHWEST IOWA

CITY           SKY/WX    TMP DP  RH WIND       PRES   REMARKS
DENISON        CLOUDY    30  28  93 S3        30.20S
ESTHERVILLE    CLOUDY    24  20  84 S7        30.21S WCI  16
SIOUX CITY     CLOUDY    30  26  85 S8        30.21F WCI  22
SPENCER        CLOUDY    27  22  81 SE6       30.21S WCI  20
$$

ABBREVIATIONS USED IN REMARKS
   TC - TEMPERATURE IN CELSIUS
  WCI - WIND CHILL INDEX
   HX - HEAT INDEX
  VSB - VISIBILITY



USA.gov is the U.S. government's official web portal to all federal, state and local government web resources and services.